Location: STAR School
(35.3054°N, 111.2976°W)
Time: 04:23:46
(UTC-07:00)

Explorer 11/Cluster Stage 4 - All Passes

Search period start: 23 May 2019 00:00
Search period end: 02 June 2019 00:00
Orbit: 467 x 1260 km, 28.8° (Epoch: 22 May)

Date Brightness Start Highest point End Pass type
(mag) Time Alt. Az. Time Alt. Az. Time Alt. Az.
23 May - 01:39:34 10° S 01:41:00 11° SSE 01:42:20 10° SE night (unlit)
23 May - 03:25:01 10° SW 03:29:08 24° SSE 03:32:39 10° ESE visible
23 May - 05:13:10 10° WSW 05:17:08 32° S 05:20:36 10° ESE daylight
23 May - 07:01:51 10° WSW 07:04:57 23° SSW 07:07:53 10° SE daylight
24 May - 01:27:21 10° S 01:30:23 14° SSE 01:33:08 10° SE visible
24 May - 03:14:01 10° SW 03:18:35 28° S 03:22:25 10° ESE visible
24 May - 05:02:26 10° WSW 05:06:38 34° S 05:10:13 10° ESE daylight
24 May - 06:51:22 10° WSW 06:54:26 22° SSW 06:57:18 10° SE daylight
25 May - 01:15:42 10° SSW 01:19:45 17° SSE 01:23:19 10° ESE visible
25 May - 03:03:01 10° SW 03:08:02 31° S 03:12:09 10° ESE visible
25 May - 04:51:42 10° WSW 04:56:08 35° S 04:59:51 10° ESE daylight
25 May - 06:40:53 10° WSW 06:43:55 20° SSW 06:46:43 10° SSE daylight
26 May - 01:04:16 10° SSW 01:09:07 21° SSE 01:13:18 10° ESE visible
26 May - 02:52:04 10° WSW 02:57:28 35° S 03:01:51 10° ESE visible
26 May - 04:40:58 10° WSW 04:45:36 36° S 04:49:27 10° ESE visible
26 May - 06:30:23 10° WSW 06:33:22 19° SSW 06:36:05 10° SSE daylight
27 May - 00:52:57 10° SW 00:58:27 25° SSE 01:03:08 10° ESE visible
27 May - 02:41:07 10° WSW 02:46:51 39° S 02:51:31 10° ESE visible
27 May - 04:30:12 10° WSW 04:35:03 36° S 04:39:03 10° ESE visible
27 May - 06:19:54 10° WSW 06:22:48 17° SSW 06:25:26 10° SSE daylight
27 May - 22:56:10 10° S 22:59:15 13° SSE 23:02:12 10° SE night (unlit)
28 May - 00:41:44 10° SW 00:47:45 28° SSE 00:52:54 10° ESE visible
28 May - 02:30:11 10° WSW 02:36:15 42° S 02:41:09 10° ESE visible
28 May - 04:19:25 10° WSW 04:24:29 36° S 04:28:38 10° SE visible
28 May - 06:09:27 10° WSW 06:12:12 16° SSW 06:14:43 10° SSE daylight
28 May - 22:44:10 10° S 22:48:29 16° SSE 22:52:32 10° ESE night (unlit)
29 May - 00:30:34 10° SW 00:37:03 32° SSE 00:42:34 10° ESE night (unlit)
29 May - 02:19:14 10° WSW 02:25:37 44° S 02:30:46 10° ESE visible
29 May - 04:08:38 10° WSW 04:13:54 35° SSW 04:18:11 10° SE visible
29 May - 05:59:00 10° WSW 06:01:35 14° SSW 06:03:57 10° S daylight
29 May - 22:32:30 10° SSW 22:37:42 19° SSE 22:42:32 10° ESE night (unlit)
30 May - 00:19:27 10° SW 00:26:20 36° SSE 00:32:11 10° ESE night (unlit)
30 May - 02:08:19 10° WSW 02:14:58 47° S 02:20:21 10° ESE visible
30 May - 03:57:51 10° WSW 04:03:17 35° SSW 04:07:43 10° SE visible
30 May - 05:48:38 10° WSW 05:50:57 13° SSW 05:53:05 10° S daylight
30 May - 22:21:03 10° SSW 22:26:53 22° SSE 22:32:20 10° ESE visible
31 May - 00:08:23 10° SW 00:15:35 40° SSE 00:21:45 10° E night (unlit)
31 May - 01:57:24 10° WSW 02:04:18 48° S 02:09:54 10° ESE visible
31 May - 03:47:03 10° W 03:52:38 33° SSW 03:57:12 10° SE visible
31 May - 05:38:22 10° SW 05:40:16 12° SSW 05:42:04 10° S daylight
31 May - 22:09:43 10° SSW 22:16:04 25° SSE 22:22:01 10° ESE visible
31 May - 23:57:22 10° WSW 00:04:49 43° S 00:11:17 10° E night (unlit)
01 Jun - 01:46:30 10° WSW 01:53:36 49° S 01:59:26 10° ESE visible
01 Jun - 03:36:15 10° W 03:41:58 32° SSW 03:46:41 10° SE visible
01 Jun - 05:28:21 10° SW 05:29:34 11° SSW 05:30:46 10° SSW daylight
01 Jun - 20:15:40 10° SSE 20:16:47 10° SSE 20:17:54 10° SE visible
01 Jun - 21:58:30 10° SSW 22:05:13 28° SSE 22:11:36 10° ESE visible
